Location: Cheching
(60.0667°N, 164.2167°W)
Time: 13:30:34
(UTC+00:00)

NOAA 15 - Pass Details

Date: 29 January 2021
Orbit: 798 x 812 km, 98.7° (Epoch: 05 March)

Event Time Altitude Azimuth Distance (km) Brightness Sun altitude
Rises 04:00:18 0° 129° (SE) 3,314 7.5 -7.1°
Reaches altitude 10° 04:02:45 10° 121° (ESE) 2,389 6.7 -7.4°
Maximum altitude 04:07:34 38° 56° (NE) 1,230 5.1 -8.0°
Drops below altitude 10° 04:12:26 10° 350° (N) 2,409 7.0 -8.5°
Sets 04:14:55 0° 342° (NNW) 3,346 7.8 -8.8°
